TimePST,TemperatureF,Dew PointF,Humidity,Sea Level PressureIn,VisibilityMPH,Wind Direction,Wind SpeedMPH,Gust SpeedMPH,PrecipitationIn,Events,Conditions,WindDirDegrees,DateUTC
12:56 AM,54.0,44.1,69,29.78,10.0,South,15.0,26.5,N/A,,Overcast,190,2012-12-05 08:56:00
1:56 AM,55.9,44.1,64,29.77,10.0,SSW,16.1,-,N/A,,Overcast,200,2012-12-05 09:56:00
2:56 AM,53.1,46.0,77,29.82,9.0,NW,13.8,17.3,0.01,Rain,Light Rain,310,2012-12-05 10:56:00
3:08 AM,51.8,46.4,82,29.82,10.0,NW,8.1,-,0.00,Rain,Light Rain,320,2012-12-05 11:08:00
3:56 AM,52.0,43.0,71,29.84,10.0,West,9.2,-,0.01,Rain,Light Rain,280,2012-12-05 11:56:00
4:05 AM,51.8,42.8,71,29.83,10.0,Variable,4.6,-,0.00,Rain,Light Rain,0,2012-12-05 12:05:00
4:56 AM,51.1,39.9,66,29.86,10.0,WNW,15.0,19.6,0.01,,Mostly Cloudy,300,2012-12-05 12:56:00
6:56 AM,48.0,33.1,56,29.99,10.0,WSW,18.4,26.5,N/A,,Scattered Clouds,250,2012-12-05 14:56:00
7:56 AM,46.9,32.0,56,30.03,10.0,NW,13.8,19.6,N/A,,Scattered Clouds,310,2012-12-05 15:56:00
8:56 AM,46.9,28.9,50,30.07,10.0,WNW,17.3,27.6,N/A,,Clear,300,2012-12-05 16:56:00
9:56 AM,46.9,30.9,54,30.11,10.0,WNW,12.7,21.9,N/A,,Clear,290,2012-12-05 17:56:00
10:56 AM,50.0,30.9,48,30.11,10.0,WNW,10.4,-,N/A,,Partly Cloudy,300,2012-12-05 18:56:00
11:56 AM,51.1,28.9,43,30.11,10.0,West,17.3,20.7,N/A,,Clear,260,2012-12-05 19:56:00
12:56 PM,50.0,27.0,41,30.12,10.0,West,12.7,23.0,N/A,,Clear,270,2012-12-05 20:56:00
1:56 PM,48.9,25.0,39,30.13,10.0,West,8.1,-,N/A,,Clear,280,2012-12-05 21:56:00
2:56 PM,48.0,26.1,42,30.15,10.0,West,9.2,-,N/A,,Clear,280,2012-12-05 22:56:00
3:56 PM,45.0,26.1,48,30.17,10.0,SW,4.6,-,N/A,,Clear,230,2012-12-05 23:56:00
4:56 PM,44.1,24.1,45,30.19,10.0,Calm,Calm,-,N/A,,Clear,0,2012-12-06 00:56:00
5:56 PM,43.0,24.1,47,30.20,10.0,Calm,Calm,-,N/A,,Clear,0,2012-12-06 01:56:00
6:56 PM,39.0,25.0,57,30.21,10.0,Calm,Calm,-,N/A,,Clear,0,2012-12-06 02:56:00
7:56 PM,39.0,27.0,62,30.21,10.0,South,5.8,-,N/A,,Clear,180,2012-12-06 03:56:00
8:56 PM,41.0,26.1,55,30.20,10.0,South,3.5,-,N/A,,Clear,180,2012-12-06 04:56:00
9:56 PM,37.9,26.1,62,30.20,10.0,Calm,Calm,-,N/A,,Partly Cloudy,0,2012-12-06 05:56:00
10:56 PM,37.0,28.0,70,30.20,10.0,Calm,Calm,-,N/A,,Mostly Cloudy,0,2012-12-06 06:56:00
11:56 PM,36.0,28.9,76,30.20,10.0,Calm,Calm,-,N/A,,Overcast,0,2012-12-06 07:56:00